GW0692 Weather Reports


Display with metric or nautical units.
time (UTC)temp
F
wind
direction
speed
MPH
gust
MPH
rain 1hr
in
rain 24hr
in
rain mn
in
humidity
%
barometer
mb
20260905123055 59 257 2.0 2.0 0.00 0.00 0.00 82 1025.1
20260905122555 59 252 2.0 2.0 0.00 0.00 0.00 82 1025.4
20260905122055 59 269 2.0 2.0 0.00 0.00 0.00 82 1025.3
20260905121550 60 254 2.0 3.0 0.00 0.00 0.00 81 1025.1
20260905121045 60 245 2.0 3.0 0.00 0.00 0.00 81 1025.4
20260905120544 60 261 1.0 2.0 0.00 0.00 0.00 80 1025.0
20260905120039 60 258 3.0 3.0 0.00 0.00 0.00 80 1025.0
20260905115538 60 270 3.0 5.0 0.00 0.00 0.00 79 1024.9
20260905115033 60 254 2.0 3.0 0.00 0.00 0.00 78 1025.1
20260905114532 61 258 2.0 3.0 0.00 0.00 0.00 77 1025.0
20260905114032 61 254 3.0 3.0 0.00 0.00 0.00 76 1024.6
20260905113527 62 249 3.0 3.0 0.00 0.00 0.00 75 1024.8
20260905113022 62 216 4.0 7.0 0.00 0.00 0.00 74 1024.6
20260905112517 62 245 5.0 7.0 0.00 0.00 0.00 74 1024.8
20260905112013 63 231 5.0 7.0 0.00 0.00 0.00 73 1024.6
20260905111513 63 284 4.0 5.0 0.00 0.00 0.00 73 1024.6
20260905111007 63 273 4.0 7.0 0.00 0.00 0.00 72 1024.6
20260905110506 64 264 4.0 7.0 0.00 0.00 0.00 72 1024.4
20260905110001 64 223 3.0 3.0 0.00 0.00 0.00 72 1024.4
20260905105455 63 253 3.0 3.0 0.00 0.00 0.00 72 1024.5
20260905104954 63 249 4.0 5.0 0.00 0.00 0.00 73 1024.9
20260905104451 63 253 3.0 3.0 0.00 0.00 0.00 73 1024.6
20260905103945 63 300 3.0 5.0 0.00 0.00 0.00 73 1024.5
20260905103440 63 244 3.0 3.0 0.00 0.00 0.00 73 1024.5
20260905102937 63 262 3.0 3.0 0.00 0.00 0.00 73 1024.5
20260905102432 63 286 3.0 5.0 0.00 0.00 0.00 73 1024.5
20260905101927 63 259 3.0 5.0 0.00 0.00 0.00 73 1024.4
20260905101426 63 234 3.0 3.0 0.00 0.00 0.00 73 1024.3
20260905100921 63 263 3.0 3.0 0.00 0.00 0.00 73 1024.5
20260905100416 63 253 4.0 5.0 0.00 0.00 0.00 74 1024.1
20260905095916 63 257 3.0 3.0 0.00 0.00 0.00 74 1024.6
20260905095410 63 263 4.0 5.0 0.00 0.00 0.00 74 1024.3
20260905094905 63 265 3.0 5.0 0.00 0.00 0.00 74 1024.3
20260905094400 63 236 3.0 3.0 0.00 0.00 0.00 74 1024.8
20260905093859 63 265 4.0 5.0 0.00 0.00 0.00 75 1024.3
20260905093355 63 265 5.0 7.0 0.00 0.00 0.00 74 1024.6
20260905092850 63 255 4.0 5.0 0.00 0.00 0.00 75 1024.6
20260905092345 63 265 5.0 5.0 0.00 0.00 0.00 75 1024.4
20260905091840 63 244 3.0 3.0 0.00 0.00 0.00 74 1024.5
20260905091339 63 261 5.0 7.0 0.00 0.00 0.00 74 1024.9
20260905090838 63 259 4.0 5.0 0.00 0.00 0.00 75 1024.8
20260905090335 63 252 3.0 3.0 0.00 0.00 0.00 75 1024.9
20260905085834 63 256 3.0 3.0 0.00 0.00 0.00 75 1024.6
20260905085328 63 236 3.0 3.0 0.00 0.00 0.00 74 1024.5
20260905084824 62 239 5.0 9.0 0.00 0.00 0.00 75 1024.6
20260905084323 62 207 3.0 5.0 0.00 0.00 0.00 75 1024.8
20260905083818 62 251 2.0 3.0 0.00 0.00 0.00 75 1024.9
20260905083314 62 250 2.0 3.0 0.00 0.00 0.00 75 1024.8
20260905082809 62 252 1.0 2.0 0.00 0.00 0.00 75 1024.8
20260905082307 62 252 1.0 2.0 0.00 0.00 0.00 74 1024.8
20260905081805 63 246 0.0 2.0 0.00 0.00 0.00 74 1024.8
20260905081301 63 248 1.0 2.0 0.00 0.00 0.00 73 1025.0
20260905080759 63 246 2.0 2.0 0.00 0.00 0.00 73 1025.0
20260905080254 63 247 3.0 3.0 0.00 0.00 0.00 73 1024.8
20260905075753 63 247 2.0 3.0 0.00 0.00 0.00 72 1024.9
20260905075253 63 252 2.0 2.0 0.00 0.00 0.00 72 1024.6
20260905074751 64 316 1.0 2.0 0.00 0.00 0.00 71 1024.6
20260905074247 63 245 2.0 2.0 0.00 0.00 0.00 72 1024.8
20260905073737 64 246 2.0 2.0 0.00 0.00 0.00 71 1025.1
20260905073233 64 249 2.0 2.0 0.00 0.00 0.00 71 1025.0
20260905072732 64 309 2.0 3.0 0.00 0.00 0.00 70 1024.8
20260905072227 64 255 3.0 3.0 0.00 0.00 0.00 70 1024.8
20260905071724 64 244 2.0 3.0 0.00 0.00 0.00 70 1024.9
20260905071220 65 245 2.0 2.0 0.00 0.00 0.00 69 1024.8
20260905070714 65 258 2.0 2.0 0.00 0.00 0.00 69 1025.1
20260905070211 65 240 4.0 5.0 0.00 0.00 0.00 69 1024.9
20260905065709 65 254 2.0 3.0 0.00 0.00 0.00 69 1025.1
20260905065203 65 256 2.0 2.0 0.00 0.00 0.00 69 1025.1
20260905064659 65 247 3.0 3.0 0.00 0.00 0.00 69 1025.0
20260905064154 64 260 3.0 3.0 0.00 0.00 0.00 69 1025.0
20260905063653 64 245 2.0 2.0 0.00 0.00 0.00 69 1024.8
20260905063149 65 265 1.0 2.0 0.00 0.00 0.00 67 1024.8
20260905062645 65 249 2.0 3.0 0.00 0.00 0.00 67 1024.6
20260905062144 65 281 3.0 5.0 0.00 0.00 0.00 67 1024.9
20260905061639 65 244 3.0 3.0 0.00 0.00 0.00 66 1024.9
20260905061138 65 250 5.0 5.0 0.00 0.00 0.00 66 1024.9
20260905060634 65 250 4.0 5.0 0.00 0.00 0.00 66 1024.6
20260905060130 66 241 3.0 3.0 0.00 0.00 0.00 66 1024.6
20260905055628 65 231 3.0 5.0 0.00 0.00 0.00 66 1025.1
20260905055124 65 276 3.0 3.0 0.00 0.00 0.00 66 1024.9
20260905054620 66 243 2.0 3.0 0.00 0.00 0.00 66 1024.6
20260905054115 66 280 6.0 7.0 0.00 0.00 0.00 65 1024.6
20260905053615 66 244 3.0 3.0 0.00 0.00 0.00 65 1024.9
20260905053110 66 255 3.0 3.0 0.00 0.00 0.00 65 1024.5
20260905052609 66 251 4.0 5.0 0.00 0.00 0.00 65 1024.5
20260905052104 66 260 4.0 5.0 0.00 0.00 0.00 65 1024.6
20260905051559 66 206 4.0 5.0 0.00 0.00 0.00 64 1024.6
20260905051055 66 238 3.0 3.0 0.00 0.00 0.00 64 1024.8
20260905050546 66 264 4.0 7.0 0.00 0.00 0.00 64 1024.6
20260905050043 66 251 3.0 3.0 0.00 0.00 0.00 64 1024.9
20260905045537 66 239 3.0 3.0 0.00 0.00 0.00 64 1025.0
20260905045032 65 251 4.0 5.0 0.00 0.00 0.00 64 1024.8
20260905044532 65 266 5.0 7.0 0.00 0.00 0.00 64 1025.0
20260905044027 66 250 5.0 7.0 0.00 0.00 0.00 64 1025.0
20260905043526 66 259 3.0 3.0 0.00 0.00 0.00 63 1025.3
20260905043022 67 256 5.0 7.0 0.00 0.00 0.00 63 1025.1
20260905042520 67 236 3.0 5.0 0.00 0.00 0.00 62 1025.1
20260905042016 67 253 2.0 3.0 0.00 0.00 0.00 62 1025.0
20260905041511 67 238 6.0 7.0 0.00 0.00 0.00 61 1025.0
20260905041007 66 229 2.0 3.0 0.00 0.00 0.00 61 1025.1
20260905040506 66 252 4.0 5.0 0.00 0.00 0.00 61 1025.0
20260905040005 67 242 4.0 5.0 0.00 0.00 0.00 61 1025.3
20260905035500 67 223 3.0 3.0 0.00 0.00 0.00 61 1025.5
20260905034957 66 242 3.0 3.0 0.00 0.00 0.00 61 1025.4
20260905034458 67 246 4.0 5.0 0.00 0.00 0.00 61 1025.6
20260905033956 66 220 7.0 9.0 0.00 0.00 0.00 61 1025.5
20260905033451 66 232 6.0 9.0 0.00 0.00 0.00 61 1025.6
20260905032946 66 250 5.0 7.0 0.00 0.00 0.00 61 1025.4
20260905032442 66 231 5.0 5.0 0.00 0.00 0.00 62 1025.4
20260905031936 66 226 4.0 5.0 0.00 0.00 0.00 62 1025.4
20260905031432 65 230 4.0 5.0 0.00 0.00 0.00 64 1025.5
20260905030927 0 0.0 0.0 0.00 0.00 0.00 1025.6
20260905030423 65 254 1.0 2.0 0.00 0.00 0.00 66 1025.4
20260905025921 65 254 1.0 2.0 0.00 0.00 0.00 66 1025.4
20260905025417 65 285 5.0 5.0 0.00 0.00 0.00 65 1025.5
20260905024914 0 0.0 0.0 0.00 0.00 0.00 1025.3
20260905024414 0 0.0 0.0 0.00 0.00 0.00 1025.4
20260905023910 65 242 7.0 9.0 0.00 0.00 0.00 65 1024.9
20260905023405 65 242 7.0 9.0 0.00 0.00 0.00 65 1024.9
20260905022903 65 215 4.0 5.0 0.00 0.00 0.00 67 1024.6
20260905022353 65 268 5.0 7.0 0.00 0.00 0.00 67 1024.6
20260905021848 0 0.0 0.0 0.00 0.00 0.00 1024.6
20260905021343 65 275 5.0 5.0 0.00 0.00 0.00 68 1024.4
20260905020838 65 275 5.0 5.0 0.00 0.00 0.00 68 1024.4
20260905020332 65 225 4.0 5.0 0.00 0.00 0.00 68 1024.4
20260905015832 65 234 4.0 5.0 0.00 0.00 0.00 68 1024.1
20260905015331 65 215 4.0 5.0 0.00 0.00 0.00 68 1024.5
20260905014825 65 246 3.0 3.0 0.00 0.00 0.00 68 1024.3
20260905014320 65 249 4.0 5.0 0.00 0.00 0.00 68 1024.6
20260905013816 65 234 3.0 3.0 0.00 0.00 0.00 68 1024.4
20260905013312 65 241 5.0 7.0 0.00 0.00 0.00 68 1024.9
20260905012807 65 256 5.0 7.0 0.00 0.00 0.00 68 1024.4
20260905012305 65 258 5.0 5.0 0.00 0.00 0.00 68 1024.6
20260905011759 66 207 6.0 9.0 0.00 0.00 0.00 68 1025.0
20260905011255 66 194 7.0 7.0 0.00 0.00 0.00 68 1025.0
20260905010755 66 208 7.0 10.0 0.00 0.00 0.00 67 1024.8
20260905010250 66 188 7.0 9.0 0.00 0.00 0.00 66 1024.9
20260905005747 66 264 4.0 5.0 0.00 0.00 0.00 66 1024.8
20260905005242 66 168 6.0 9.0 0.00 0.00 0.00 65 1024.5
20260905004741 66 159 6.0 7.0 0.00 0.00 0.00 65 1024.8
20260905004237 67 241 9.0 12.0 0.00 0.00 0.00 65 1024.8
20260905003736 67 180 5.0 7.0 0.00 0.00 0.00 64 1024.6
20260905003232 67 210 7.0 9.0 0.00 0.00 0.00 64 1024.9
20260905002728 68 263 6.0 9.0 0.00 0.00 0.00 63 1024.5
20260905002228 68 166 9.0 12.0 0.00 0.00 0.00 63 1024.5
20260905001723 69 201 7.0 10.0 0.00 0.00 0.00 61 1024.5
20260905001221 70 206 6.0 9.0 0.00 0.00 0.00 59 1024.5
20260905000717 70 232 8.0 12.0 0.00 0.00 0.00 57 1024.1
20260905000213 73 145 8.0 12.0 0.00 0.00 0.00 53 1024.0
20260904235708 75 255 1.0 2.0 0.00 0.00 0.00 44 1024.0
20260904235203 75 229 5.0 7.0 0.00 0.00 0.00 44 1023.5
20260904234657 75 247 3.0 5.0 0.00 0.00 0.00 44 1023.5
20260904234153 75 239 3.0 3.0 0.00 0.00 0.00 44 1023.6
20260904233649 75 220 5.0 7.0 0.00 0.00 0.00 43 1023.8
20260904233144 75 247 4.0 5.0 0.00 0.00 0.00 43 1023.8
20260904232641 76 279 4.0 5.0 0.00 0.00 0.00 43 1023.4
20260904232137 76 273 3.0 3.0 0.00 0.00 0.00 42 1023.6
20260904231632 76 248 9.0 10.0 0.00 0.00 0.00 42 1023.5
20260904231127 77 236 6.0 9.0 0.00 0.00 0.00 41 1023.4
20260904230627 77 233 6.0 14.0 0.00 0.00 0.00 41 1023.6
20260904230122 78 244 7.0 9.0 0.00 0.00 0.00 39 1023.6
20260904225620 77 253 3.0 3.0 0.00 0.00 0.00 38 1023.3
20260904225115 78 244 6.0 7.0 0.00 0.00 0.00 37 1023.6
20260904224609 78 284 3.0 3.0 0.00 0.00 0.00 37 1023.4
20260904224104 78 247 9.0 14.0 0.00 0.00 0.00 37 1023.2
20260904223603 78 251 3.0 5.0 0.00 0.00 0.00 38 1023.2
20260904223059 79 264 7.0 10.0 0.00 0.00 0.00 35 1023.0
20260904222554 80 269 5.0 7.0 0.00 0.00 0.00 36 1023.2
20260904222044 82 220 4.0 7.0 0.00 0.00 0.00 35 1023.4
20260904221538 80 323 3.0 3.0 0.00 0.00 0.00 37 1023.3
20260904221033 80 241 5.0 7.0 0.00 0.00 0.00 36 1023.4
20260904220532 81 263 6.0 9.0 0.00 0.00 0.00 36 1023.4
20260904220029 79 240 1.0 2.0 0.00 0.00 0.00 35 1023.5
20260904215528 78 265 7.0 9.0 0.00 0.00 0.00 38 1023.5
20260904215024 78 286 6.0 7.0 0.00 0.00 0.00 39 1023.4
20260904214519 78 190 4.0 5.0 0.00 0.00 0.00 39 1023.5
20260904214015 78 259 4.0 7.0 0.00 0.00 0.00 39 1023.8
20260904213513 78 257 2.0 3.0 0.00 0.00 0.00 40 1023.8
20260904213010 79 263 3.0 3.0 0.00 0.00 0.00 38 1023.8
20260904212509 80 245 4.0 5.0 0.00 0.00 0.00 38 1023.5
20260904212004 80 295 5.0 9.0 0.00 0.00 0.00 37 1023.9
20260904211458 80 223 6.0 7.0 0.00 0.00 0.00 37 1023.8
20260904210954 81 215 6.0 9.0 0.00 0.00 0.00 37 1023.8
20260904210453 79 270 5.0 7.0 0.00 0.00 0.00 38 1023.9
20260904205949 79 257 7.0 9.0 0.00 0.00 0.00 39 1024.1
20260904205444 79 252 5.0 5.0 0.00 0.00 0.00 40 1023.9
20260904204941 79 249 4.0 5.0 0.00 0.00 0.00 40 1024.3
20260904204436 79 219 6.0 9.0 0.00 0.00 0.00 40 1024.4
20260904203933 78 251 2.0 3.0 0.00 0.00 0.00 41 1024.3
20260904203429 78 222 9.0 10.0 0.00 0.00 0.00 42 1024.5
20260904202924 78 232 2.0 3.0 0.00 0.00 0.00 41 1024.3
20260904202420 78 239 2.0 3.0 0.00 0.00 0.00 42 1024.4
20260904201916 79 218 3.0 3.0 0.00 0.00 0.00 41 1024.8
20260904201411 78 277 3.0 3.0 0.00 0.00 0.00 41 1024.6
20260904200907 79 239 3.0 5.0 0.00 0.00 0.00 43 1024.8
20260904200405 77 262 4.0 5.0 0.00 0.00 0.00 42 1024.9
20260904195900 75 245 6.0 7.0 0.00 0.00 0.00 44 1024.9
20260904195358 75 276 4.0 5.0 0.00 0.00 0.00 46 1025.0
20260904194853 74 253 5.0 7.0 0.00 0.00 0.00 48 1025.0
20260904194352 75 231 5.0 5.0 0.00 0.00 0.00 47 1025.1
20260904193848 75 240 3.0 3.0 0.00 0.00 0.00 49 1025.4
20260904193343 73 228 1.0 2.0 0.00 0.00 0.00 51 1025.1
20260904192838 74 250 2.0 2.0 0.00 0.00 0.00 50 1025.4
20260904192333 73 289 2.0 2.0 0.00 0.00 0.00 52 1025.3
20260904191830 74 242 4.0 5.0 0.00 0.00 0.00 50 1025.5
20260904191326 73 242 3.0 3.0 0.00 0.00 0.00 53 1025.5
20260904190823 72 250 0.0 2.0 0.00 0.00 0.00 55 1025.3
20260904190319 72 234 5.0 5.0 0.00 0.00 0.00 54 1025.4
20260904185814 72 245 5.0 7.0 0.00 0.00 0.00 53 1025.4
20260904185310 73 244 3.0 3.0 0.00 0.00 0.00 53 1025.3
20260904184809 72 330 3.0 3.0 0.00 0.00 0.00 53 1025.6
20260904184304 71 245 0.0 2.0 0.00 0.00 0.00 56 1025.9
20260904183759 70 246 0.0 0.0 0.00 0.00 0.00 56 1026.0
20260904183254 70 245 3.0 3.0 0.00 0.00 0.00 57 1026.0
20260904182749 70 232 7.0 9.0 0.00 0.00 0.00 58 1025.8
20260904182244 70 232 3.0 3.0 0.00 0.00 0.00 58 1026.0
20260904181740 70 257 4.0 5.0 0.00 0.00 0.00 58 1026.0
20260904181239 70 253 3.0 5.0 0.00 0.00 0.00 59 1026.1
20260904180735 69 214 4.0 5.0 0.00 0.00 0.00 59 1026.1
20260904180231 69 250 4.0 5.0 0.00 0.00 0.00 59 1026.1
20260904175729 69 267 4.0 7.0 0.00 0.00 0.00 59 1025.8
20260904175228 69 242 7.0 9.0 0.00 0.00 0.00 59 1026.1
20260904174723 69 243 4.0 7.0 0.00 0.00 0.00 59 1026.1
20260904174219 68 258 5.0 7.0 0.00 0.00 0.00 60 1026.4
20260904173715 68 227 5.0 7.0 0.00 0.00 0.00 61 1026.4
20260904173214 68 295 8.0 14.0 0.00 0.00 0.00 61 1026.5
20260904172712 68 257 5.0 7.0 0.00 0.00 0.00 62 1026.5
20260904172210 68 272 5.0 9.0 0.00 0.00 0.00 62 1026.3
20260904171706 68 221 9.0 14.0 0.00 0.00 0.00 63 1026.4
20260904171201 68 227 8.0 10.0 0.00 0.00 0.00 63 1026.5
20260904170657 69 259 10.0 14.0 0.00 0.00 0.00 62 1026.6
20260904170152 69 242 7.0 10.0 0.00 0.00 0.00 61 1026.5
20260904165651 69 251 10.0 14.0 0.00 0.00 0.00 61 1026.5
20260904165150 68 286 7.0 12.0 0.00 0.00 0.00 63 1026.5
20260904164646 69 242 10.0 12.0 0.00 0.00 0.00 62 1026.5
20260904164141 69 260 7.0 12.0 0.00 0.00 0.00 60 1026.4
20260904163636 69 262 7.0 9.0 0.00 0.00 0.00 60 1026.3
20260904163131 68 256 6.0 9.0 0.00 0.00 0.00 62 1026.3
20260904162625 67 264 7.0 9.0 0.00 0.00 0.00 63 1026.3
20260904162120 67 197 8.0 10.0 0.00 0.00 0.00 64 1026.5
20260904161616 67 239 5.0 7.0 0.00 0.00 0.00 64 1026.4
20260904161111 68 270 6.0 7.0 0.00 0.00 0.00 64 1026.4
20260904160607 66 273 8.0 9.0 0.00 0.00 0.00 66 1025.9
20260904155601 65 292 6.0 7.0 0.00 0.00 0.00 68 1026.1
20260904155055 65 223 9.0 14.0 0.00 0.00 0.00 69 1026.1
20260904154549 65 241 9.0 12.0 0.00 0.00 0.00 70 1025.9
20260904154039 64 255 10.0 14.0 0.00 0.00 0.00 70 1026.0
20260904153538 64 240 6.0 7.0 0.00 0.00 0.00 72 1025.8
20260904153035 64 246 9.0 12.0 0.00 0.00 0.00 74 1025.9
20260904152530 64 271 13.0 19.0 0.00 0.00 0.00 74 1025.6
20260904152026 63 256 7.0 10.0 0.00 0.00 0.00 76 1025.6
20260904151520 63 258 7.0 9.0 0.00 0.00 0.00 75 1026.0
20260904151014 62 259 8.0 12.0 0.00 0.00 0.00 77 1025.6
20260904150509 61 239 5.0 7.0 0.00 0.00 0.00 79 1025.4
20260904150009 60 257 7.0 9.0 0.00 0.00 0.00 82 1025.6
20260904145503 60 231 7.0 12.0 0.00 0.00 0.00 83 1025.5
20260904144958 60 238 4.0 5.0 0.00 0.00 0.00 82 1025.6
20260904144454 60 256 3.0 3.0 0.00 0.00 0.00 82 1025.9
20260904143950 61 246 3.0 3.0 0.00 0.00 0.00 79 1025.8
20260904143446 63 232 5.0 9.0 0.00 0.00 0.00 71 1025.6
20260904142943 63 251 5.0 7.0 0.00 0.00 0.00 69 1025.8
20260904142439 63 274 4.0 5.0 0.00 0.00 0.00 69 1025.6
20260904141938 63 249 4.0 5.0 0.00 0.00 0.00 69 1025.5
20260904141434 63 247 4.0 5.0 0.00 0.00 0.00 69 1025.5
20260904140931 63 280 6.0 9.0 0.00 0.00 0.00 67 1025.6
20260904140430 63 256 6.0 7.0 0.00 0.00 0.00 68 1025.4
20260904135929 63 286 7.0 10.0 0.00 0.00 0.00 67 1025.4
20260904135429 63 275 5.0 7.0 0.00 0.00 0.00 68 1025.3
20260904134925 63 249 8.0 10.0 0.00 0.00 0.00 68 1025.4
20260904134425 63 238 4.0 7.0 0.00 0.00 0.00 67 1025.4
20260904133920 63 242 4.0 5.0 0.00 0.00 0.00 67 1025.3
20260904133415 63 240 2.0 2.0 0.00 0.00 0.00 67 1025.1
20260904132910 63 252 2.0 2.0 0.00 0.00 0.00 67 1025.1
20260904132405 63 252 4.0 5.0 0.00 0.00 0.00 67 1025.1
20260904131905 63 247 3.0 3.0 0.00 0.00 0.00 67 1025.0
20260904131400 63 246 3.0 3.0 0.00 0.00 0.00 67 1025.1
20260904130855 63 273 3.0 3.0 0.00 0.00 0.00 67 1024.9
20260904130355 63 244 3.0 3.0 0.00 0.00 0.00 66 1024.6
20260904125849 63 278 3.0 5.0 0.00 0.00 0.00 66 1024.5
20260904125346 63 235 5.0 7.0 0.00 0.00 0.00 65 1024.5
20260904124845 63 245 3.0 3.0 0.00 0.00 0.00 65 1024.4
20260904124342 63 232 4.0 5.0 0.00 0.00 0.00 64 1024.4
20260904123837 63 235 3.0 3.0 0.00 0.00 0.00 64 1024.4
20260904123332 63 246 3.0 3.0 0.00 0.00 0.00 63 1024.5